Orbital Elements at Epoch 2459000.5 (2020-May-31.0) TDB
Reference: JPL 44 (heliocentric ecliptic J2000)
Element | Value | Uncertainty (1-sigma) | Units |
e | .1262910826961075 | 3.6436e-08 | |
a | 3.069859479695728 | 1.3704e-08 | au |
q | 2.682163602280045 | 1.0945e-07 | au |
i | 1.507847242187473 | 3.8233e-06 | deg |
node | 30.13648201815166 | 0.00013639 | deg |
peri | 296.4311968500843 | 0.0001372 | deg |
M | 92.52348642640388 | 1.6008e-05 | deg |
tp | 2458495.576411517863 (2019-Jan-12.07641152) | 8.6831e-05 | TDB |
period | 1964.609191398736 5.38 | 1.3155e-05 3.602e-08 | d yr |
n | .183242551025475 | 1.227e-09 | deg/d |
Q | 3.457555357111411 | 1.5434e-08 | au |
|
| | Orbit Determination Parameters
Additional Information
|